Terminal Aerodrome Forecast
Issued by NWS

Home | Current Version | Previous Version | Text Only | Print | Product List | Glossary On
Versions: 1 2 3 4 5 6 7 8 9 10 11 12 13 14 15 16 17 18 19 20 21 22 23 24 25 26
000
FTUS41 KGYX 040051 AAA
TAFRKD
TAF AMD
KRKD 040051Z 0401/0424 18006KT P6SM SKC
      TEMPO 0401/0405 2SM BR BKN004
     FM040500 21005KT 1/2SM FG VV002
     FM041400 21007KT P6SM SCT025 BKN035
     FM041800 21009KT P6SM VCTS SCT060CB SCT100
      AMD LTD TO CLD VIS AND WIND=

USA.gov is the U.S. government's official web portal to all federal, state and local government web resources and services.